M I D A S
Marine Information and Data Acquisition System
Tripno 231 of the Zeeleeuw from 2002-03-28 06:57:56 to 2002-03-28 13:16:46
Back to CruiseResearch ActivitiesStationsMapUnderway DataData graphs

EquipmentUnitsComments
TimeDGPSUTC
LatitudeDGPSDM.mWGS84
LongitudeDGPSDM.mWGS84
SpeedMeteo Stationm/sRelative wind speed
DirectionMeteo StationdegRelative wind direction
TemperatureMeteo Stationdeg CelciusAir temperature
PressureMeteo StationPaAtmospheric pressure
HumidityMeteo Station%Relative humidity
Missing or incorrect values are displayed as -999
Metereological data collected by the RV Zeeleeuw from 2002-03-28 06:57:56 to 2002-03-28 13:16:46
                                                                                    Next 1000 lines
Time Latitude Longitude Speed Direction Temperature Pressure Humidity
2002-03-28 06:59:16 51°13.691 2°55.907 2.5 255 2.9 102930 73
2002-03-28 06:59:21 51°13.692 2°55.907 2.6 254 2.9 102930 73
2002-03-28 06:59:26 51°13.692 2°55.908 2.7 254 2.9 102930 73
2002-03-28 06:59:30 51°13.692 2°55.908 3.1 256 3 102930 74
2002-03-28 06:59:35 51°13.689 2°55.907 2.8 262 3 102930 74
2002-03-28 06:59:40 51°13.689 2°55.907 2.8 257 3 102930 74
2002-03-28 06:59:45 51°13.689 2°55.907 2.2 260 3 102930 74
2002-03-28 06:59:50 51°13.689 2°55.907 2.2 265 3 102930 74
2002-03-28 06:59:55 51°13.688 2°55.907 2.4 264 3 102930 74
2002-03-28 07:00:00 51°13.688 2°55.906 2.2 252 3 102930 74
2002-03-28 07:00:05 51°13.687 2°55.906 2.8 262 3 102930 74
2002-03-28 07:00:09 51°13.687 2°55.906 2.9 261 2.9 102930 74
2002-03-28 07:00:15 51°13.687 2°55.906 2.3 251 2.9 102930 74
2002-03-28 07:00:20 51°13.687 2°55.906 2.7 255 3 102930 74
2002-03-28 07:00:25 51°13.687 2°55.905 3.2 264 3 102930 74
2002-03-28 07:00:30 51°13.687 2°55.905 2.9 255 3 102930 74
2002-03-28 07:00:35 51°13.688 2°55.906 2.9 264 3 102930 74
2002-03-28 07:00:40 51°13.688 2°55.906 2.4 251 2.9 102930 73
2002-03-28 07:00:45 51°13.688 2°55.906 2.6 265 2.9 102930 73
2002-03-28 07:00:49 51°13.688 2°55.906 2.8 261 3 102930 73
2002-03-28 07:00:55 51°13.688 2°55.906 2.2 256 3 102930 73
2002-03-28 07:01:00 51°13.688 2°55.906 2.3 257 3 102930 74
2002-03-28 07:01:05 51°13.688 2°55.906 2.6 280 3 102930 74
2002-03-28 07:01:09 51°13.688 2°55.907 2.5 262 3 102930 74
2002-03-28 07:01:15 51°13.688 2°55.907 2.6 244 3 102930 74
2002-03-28 07:01:19 51°13.688 2°55.907 2.1 245 3 102930 74
2002-03-28 07:01:25 51°13.689 2°55.907 2.4 252 3 102930 74
2002-03-28 07:01:30 51°13.689 2°55.907 2.1 254 3 102930 74
2002-03-28 07:01:35 51°13.689 2°55.907 1.9 255 3 102930 74
2002-03-28 07:01:40 51°13.689 2°55.907 2.6 260 3 102930 73
2002-03-28 07:01:45 51°13.689 2°55.907 2.7 264 3 102930 73
2002-03-28 07:01:49 51°13.689 2°55.906 3 263 3 102930 74
2002-03-28 07:01:55 51°13.689 2°55.906 2.8 267 3 102930 74
2002-03-28 07:02:00 51°13.689 2°55.906 3.4 261 3 102930 74
2002-03-28 07:02:05 51°13.689 2°55.906 3.1 255 3 102930 74
2002-03-28 07:02:10 51°13.689 2°55.906 2.6 259 3 102930 74
2002-03-28 07:02:15 51°13.689 2°55.906 3.3 259 3 102930 74
2002-03-28 07:02:19 51°13.689 2°55.906 2.7 254 3 102930 74
2002-03-28 07:02:25 51°13.689 2°55.906 2.9 257 3 102930 74
2002-03-28 07:02:30 51°13.689 2°55.906 2.6 256 3 102930 74
2002-03-28 07:02:35 51°13.689 2°55.906 2.6 258 3 102930 74
2002-03-28 07:02:40 51°13.688 2°55.906 2.2 274 3 102930 73
2002-03-28 07:02:45 51°13.688 2°55.906 2.1 234 3 102930 73
2002-03-28 07:02:50 51°13.688 2°55.906 3.1 270 3 102930 73
2002-03-28 07:02:55 51°13.688 2°55.906 3.1 262 3 102930 73
2002-03-28 07:03:00 51°13.688 2°55.906 3.5 254 3 102930 73
2002-03-28 07:03:05 51°13.688 2°55.906 3 251 3 102930 73
2002-03-28 07:03:10 51°13.688 2°55.906 2.6 250 3 102930 73
2002-03-28 07:03:15 51°13.688 2°55.906 3 243 3 102930 73
2002-03-28 07:03:20 51°13.688 2°55.906 2.8 251 3 102930 73
2002-03-28 07:03:25 51°13.688 2°55.906 3.1 255 3 102930 73
2002-03-28 07:03:29 51°13.688 2°55.906 2.6 260 3 102930 73
2002-03-28 07:03:35 51°13.688 2°55.906 2.9 254 3 102930 73
2002-03-28 07:03:40 51°13.688 2°55.906 3.2 258 3 102930 73
2002-03-28 07:03:45 51°13.688 2°55.906 2.4 255 3 102930 73
2002-03-28 07:03:50 51°13.688 2°55.906 2.8 254 3 102930 73
2002-03-28 07:03:55 51°13.688 2°55.906 3.5 263 3 102930 73
2002-03-28 07:04:00 51°13.688 2°55.906 3.5 260 3 102930 73
2002-03-28 07:04:05 51°13.688 2°55.906 3.4 261 3 102930 73
2002-03-28 07:04:08 51°13.688 2°55.906 3.5 259 3 102930 73
2002-03-28 07:04:11 51°13.688 2°55.906 3.6 259 3 102930 73
2002-03-28 07:04:15 51°13.688 2°55.906 3.3 254 3 102930 73
2002-03-28 07:04:19 51°13.688 2°55.906 3.9 261 3 102930 73
2002-03-28 07:04:25 51°13.688 2°55.906 3.4 248 3 102930 73
2002-03-28 07:04:30 51°13.688 2°55.906 3.1 251 3 102930 73
2002-03-28 07:04:35 51°13.688 2°55.906 3.1 252 3 102930 73
2002-03-28 07:04:41 51°13.688 2°55.906 3.2 254 3 102930 73
2002-03-28 07:04:45 51°13.688 2°55.906 3.9 260 3 102930 73
2002-03-28 07:04:51 51°13.688 2°55.906 3.8 255 3 102930 73
2002-03-28 07:04:55 51°13.688 2°55.906 2.9 250 3 102930 73
2002-03-28 07:05:00 51°13.688 2°55.906 3.5 261 3 102930 73
2002-03-28 07:05:05 51°13.688 2°55.906 3.5 254 3 102930 73
2002-03-28 07:05:09 51°13.688 2°55.906 3.7 264 3 102930 73
2002-03-28 07:05:15 51°13.688 2°55.906 3.7 261 3 102930 73
2002-03-28 07:05:19 51°13.688 2°55.906 3.4 247 3 102930 73
2002-03-28 07:05:25 51°13.688 2°55.906 3.6 260 3 102930 73
2002-03-28 07:05:31 51°13.688 2°55.906 3.5 251 3 102930 73
2002-03-28 07:05:35 51°13.688 2°55.906 3.4 264 3 102930 73
2002-03-28 07:05:40 51°13.688 2°55.906 3.8 258 3 102930 73
2002-03-28 07:05:45 51°13.688 2°55.906 3.3 255 3 102930 73
2002-03-28 07:05:50 51°13.688 2°55.906 3.1 257 3 102930 73
2002-03-28 07:05:55 51°13.688 2°55.906 3.3 254 3 102930 73
2002-03-28 07:06:00 51°13.688 2°55.906 3.1 251 3 102930 73
2002-03-28 07:06:05 51°13.688 2°55.906 2.9 243 3 102930 73
2002-03-28 07:06:10 51°13.688 2°55.906 2.7 251 3 102930 73
2002-03-28 07:06:15 51°13.688 2°55.906 3.5 250 3 102930 73
2002-03-28 07:06:20 51°13.688 2°55.906 3.3 253 3 102930 73
2002-03-28 07:06:25 51°13.688 2°55.907 3.2 251 3 102930 73
2002-03-28 07:06:29 51°13.688 2°55.907 3.4 250 3 102930 73
2002-03-28 07:06:35 51°13.688 2°55.906 3.2 258 3 102930 73
2002-03-28 07:06:40 51°13.688 2°55.906 3.3 241 3 102930 73
2002-03-28 07:06:45 51°13.689 2°55.906 3.2 236 3 102940 73
2002-03-28 07:06:49 51°13.689 2°55.906 3.5 249 3 102940 73
2002-03-28 07:06:55 51°13.689 2°55.906 2 249 3 102930 73
2002-03-28 07:07:00 51°13.689 2°55.907 1.7 235 3 102930 73
2002-03-28 07:07:05 51°13.689 2°55.907 1.7 265 3 102940 73
2002-03-28 07:07:11 51°13.689 2°55.907 2.7 249 3 102940 73
2002-03-28 07:07:15 51°13.689 2°55.907 2.8 261 3 102930 74
2002-03-28 07:07:20 51°13.689 2°55.907 3.6 257 3 102930 74
2002-03-28 07:07:25 51°13.689 2°55.907 3.6 250 3 102930 74
2002-03-28 07:07:29 51°13.689 2°55.907 3.7 253 3 102930 74
2002-03-28 07:07:35 51°13.689 2°55.906 3.6 258 3.1 102940 74
2002-03-28 07:07:40 51°13.689 2°55.906 2.9 253 3.1 102940 74
2002-03-28 07:07:45 51°13.689 2°55.906 3.4 261 3.1 102930 74
2002-03-28 07:07:50 51°13.689 2°55.907 2.9 271 3.1 102930 74
2002-03-28 07:07:55 51°13.689 2°55.906 3.1 253 3.1 102930 73
2002-03-28 07:08:00 51°13.689 2°55.906 3 258 3.1 102930 73
2002-03-28 07:08:05 51°13.689 2°55.906 3.7 256 3 102930 73
2002-03-28 07:08:10 51°13.689 2°55.906 3.6 257 3 102930 73
2002-03-28 07:08:15 51°13.689 2°55.907 3.5 257 3 102940 73
2002-03-28 07:08:20 51°13.689 2°55.907 3.2 261 3 102940 73
2002-03-28 07:08:25 51°13.689 2°55.906 2.9 254 3 102940 73
2002-03-28 07:08:30 51°13.689 2°55.906 2.8 260 3 102940 73
2002-03-28 07:08:35 51°13.689 2°55.906 2.8 263 3 102930 73
2002-03-28 07:08:40 51°13.689 2°55.906 3.5 262 3 102930 73
2002-03-28 07:08:45 51°13.689 2°55.906 3.1 253 3 102930 73
2002-03-28 07:08:50 51°13.689 2°55.906 3.2 252 3 102930 73
2002-03-28 07:08:55 51°13.689 2°55.906 2.6 261 3 102930 73
2002-03-28 07:09:00 51°13.689 2°55.906 2.9 255 3 102930 73
2002-03-28 07:09:05 51°13.689 2°55.906 2.7 257 3.1 102930 73
2002-03-28 07:09:09 51°13.688 2°55.906 3 265 3.1 102930 73
2002-03-28 07:09:15 51°13.688 2°55.906 2.8 261 3.1 102930 73
2002-03-28 07:09:20 51°13.688 2°55.906 2.4 257 3.1 102930 73
2002-03-28 07:09:25 51°13.687 2°55.905 3 267 3 102930 73
2002-03-28 07:09:30 51°13.687 2°55.906 3.3 260 3 102930 73
2002-03-28 07:09:35 51°13.688 2°55.906 3.4 258 3.1 102930 73
2002-03-28 07:09:40 51°13.688 2°55.906 3.4 255 3.1 102930 73
2002-03-28 07:09:45 51°13.689 2°55.906 3.5 247 3 102930 73
2002-03-28 07:09:50 51°13.689 2°55.906 3 239 3 102930 73
2002-03-28 07:09:55 51°13.689 2°55.906 2.3 261 3 102930 73
2002-03-28 07:10:00 51°13.689 2°55.906 2.8 257 3 102930 73
2002-03-28 07:10:05 51°13.689 2°55.906 2.8 258 3 102940 73
2002-03-28 07:10:10 51°13.689 2°55.906 2.8 276 3 102940 73
2002-03-28 07:10:15 51°13.689 2°55.906 2.8 256 3 102940 73
2002-03-28 07:10:19 51°13.689 2°55.906 2.8 266 3 102940 73
2002-03-28 07:10:25 51°13.689 2°55.906 3 269 3.1 102930 74
2002-03-28 07:10:30 51°13.689 2°55.906 3.1 258 3.1 102930 74
2002-03-28 07:10:35 51°13.688 2°55.905 3.5 259 3.1 102930 73
2002-03-28 07:10:40 51°13.687 2°55.905 2.9 249 3.1 102930 73
2002-03-28 07:10:45 51°13.687 2°55.905 2.6 244 3.1 102930 73
2002-03-28 07:10:49 51°13.688 2°55.905 2.4 262 3.1 102930 73
2002-03-28 07:10:55 51°13.688 2°55.905 2.7 257 3.1 102930 73
2002-03-28 07:11:00 51°13.688 2°55.905 2.7 257 3.1 102930 73
2002-03-28 07:11:05 51°13.688 2°55.905 2.3 261 3.1 102930 73
2002-03-28 07:11:11 51°13.688 2°55.905 1.5 265 3.1 102930 73
2002-03-28 07:11:15 51°13.688 2°55.905 2.9 273 3.1 102930 73
2002-03-28 07:11:21 51°13.689 2°55.905 3.1 257 3.1 102930 73
2002-03-28 07:11:25 51°13.689 2°55.905 2.5 264 3.1 102930 73
2002-03-28 07:11:31 51°13.689 2°55.905 2.7 263 3.1 102930 73
2002-03-28 07:11:35 51°13.689 2°55.905 2.2 261 3.1 102930 73
2002-03-28 07:11:40 51°13.689 2°55.905 2.5 253 3.1 102930 73
2002-03-28 07:11:45 51°13.689 2°55.905 2.3 242 3.1 102930 73
2002-03-28 07:11:50 51°13.689 2°55.906 1.9 246 3.1 102930 73
2002-03-28 07:11:55 51°13.69 2°55.906 2 261 3.1 102930 73
2002-03-28 07:12:01 51°13.69 2°55.906 2.3 257 3.1 102930 73
2002-03-28 07:12:05 51°13.69 2°55.906 2 267 3.1 102930 73
2002-03-28 07:12:10 51°13.69 2°55.906 2.1 249 3.1 102930 73
2002-03-28 07:12:15 51°13.69 2°55.906 2.3 241 3.1 102930 73
2002-03-28 07:12:20 51°13.69 2°55.906 1.9 255 3.1 102930 73
2002-03-28 07:12:25 51°13.69 2°55.906 2.8 271 3.1 102930 73
2002-03-28 07:12:30 51°13.69 2°55.906 3.3 264 3.1 102930 73
2002-03-28 07:12:35 51°13.691 2°55.906 3.5 264 3.1 102930 73
2002-03-28 07:12:40 51°13.691 2°55.906 3.4 265 3.1 102930 73
2002-03-28 07:12:45 51°13.689 2°55.906 3.4 274 3.1 102930 73
2002-03-28 07:12:51 51°13.689 2°55.905 3.7 268 3.1 102930 73
2002-03-28 07:12:55 51°13.688 2°55.905 2.9 244 3.1 102930 73
2002-03-28 07:13:00 51°13.689 2°55.906 3 251 3.1 102930 73
2002-03-28 07:13:05 51°13.69 2°55.907 2.9 261 3.1 102930 73
2002-03-28 07:13:09 51°13.691 2°55.907 3.3 269 3.1 102930 73
2002-03-28 07:13:15 51°13.691 2°55.907 2.8 267 3.1 102930 73
2002-03-28 07:13:20 51°13.691 2°55.907 3.6 276 3.1 102930 73
2002-03-28 07:13:25 51°13.691 2°55.907 3.8 268 3.1 102930 73
2002-03-28 07:13:30 51°13.691 2°55.907 3.7 257 3.1 102930 73
2002-03-28 07:13:35 51°13.691 2°55.907 4.1 261 3.1 102930 73
2002-03-28 07:13:40 51°13.691 2°55.907 3.6 266 3.1 102930 73
2002-03-28 07:13:45 51°13.691 2°55.907 3.1 259 3.1 102930 73
2002-03-28 07:13:50 51°13.691 2°55.907 3.5 267 3.1 102930 73
2002-03-28 07:13:55 51°13.691 2°55.907 3.2 257 3.1 102930 73
2002-03-28 07:14:01 51°13.691 2°55.907 3.4 264 3.1 102930 73
2002-03-28 07:14:05 51°13.691 2°55.907 2.7 263 3.1 102930 73
2002-03-28 07:14:11 51°13.691 2°55.907 2.8 262 3.1 102930 73
2002-03-28 07:14:15 51°13.691 2°55.908 3.5 261 3.1 102930 73
2002-03-28 07:14:20 51°13.691 2°55.908 2.7 254 3.1 102930 73
2002-03-28 07:14:25 51°13.69 2°55.907 2.7 246 3.1 102930 73
2002-03-28 07:14:30 51°13.69 2°55.907 2.2 256 3.1 102930 73
2002-03-28 07:14:35 51°13.689 2°55.907 2.4 252 3.1 102930 73
2002-03-28 07:14:41 51°13.689 2°55.907 3.1 255 3.1 102930 73
2002-03-28 07:14:45 51°13.689 2°55.907 2.9 283 3.1 102930 73
2002-03-28 07:14:51 51°13.689 2°55.906 3 266 3.1 102930 73
2002-03-28 07:14:55 51°13.689 2°55.907 3.8 260 3.1 102930 73
2002-03-28 07:15:01 51°13.689 2°55.906 3.8 249 3.1 102930 73
2002-03-28 07:15:05 51°13.689 2°55.906 3.4 244 3.1 102930 73
2002-03-28 07:15:09 51°13.689 2°55.906 2.3 251 3.1 102930 73
2002-03-28 07:15:15 51°13.689 2°55.906 2.8 253 3.2 102930 73
2002-03-28 07:15:21 51°13.69 2°55.906 2.5 256 3.2 102930 73
2002-03-28 07:15:25 51°13.69 2°55.906 2.9 268 3.1 102930 73
2002-03-28 07:15:29 51°13.69 2°55.906 2.8 261 3.1 102930 73
2002-03-28 07:15:35 51°13.69 2°55.906 3 255 3.1 102930 73
2002-03-28 07:15:39 51°13.69 2°55.906 3 254 3.1 102930 73
2002-03-28 07:15:45 51°13.69 2°55.906 3.3 253 3.1 102930 73
2002-03-28 07:15:50 51°13.69 2°55.906 3 268 3.1 102930 73
2002-03-28 07:15:55 51°13.689 2°55.905 2.7 249 3.2 102930 73
2002-03-28 07:16:01 51°13.688 2°55.905 3.3 250 3.2 102930 73
2002-03-28 07:16:05 51°13.688 2°55.905 3.5 269 3.1 102930 73
2002-03-28 07:16:09 51°13.689 2°55.905 3 263 3.1 102930 73
2002-03-28 07:16:15 51°13.689 2°55.905 2.7 273 3.1 102930 73
2002-03-28 07:16:20 51°13.689 2°55.905 2.9 262 3.1 102930 73
2002-03-28 07:16:25 51°13.689 2°55.905 2.5 258 3.1 102930 73
2002-03-28 07:16:30 51°13.689 2°55.905 2.1 271 3.1 102930 73
2002-03-28 07:16:35 51°13.688 2°55.905 3.2 267 3.1 102930 73
2002-03-28 07:16:39 51°13.688 2°55.905 3.3 262 3.1 102930 73
2002-03-28 07:16:45 51°13.688 2°55.905 3 264 3.1 102930 73
2002-03-28 07:16:50 51°13.689 2°55.905 2.7 285 3.1 102930 73
2002-03-28 07:16:55 51°13.689 2°55.905 3.1 272 3.1 102930 73
2002-03-28 07:16:59 51°13.689 2°55.905 3 262 3.1 102930 73
2002-03-28 07:17:05 51°13.689 2°55.905 3.4 257 3.1 102930 73
2002-03-28 07:17:09 51°13.689 2°55.905 3.5 258 3.1 102930 73
2002-03-28 07:17:15 51°13.689 2°55.906 3.3 258 3.1 102930 73
2002-03-28 07:17:20 51°13.689 2°55.905 2.9 257 3.1 102930 73
2002-03-28 07:17:25 51°13.689 2°55.905 3.4 264 3.1 102930 73
2002-03-28 07:17:30 51°13.689 2°55.905 3.8 259 3.1 102930 73
2002-03-28 07:17:35 51°13.689 2°55.906 3 251 3.1 102930 73
2002-03-28 07:17:40 51°13.689 2°55.906 3.5 256 3.1 102930 73
2002-03-28 07:17:45 51°13.689 2°55.906 3.4 261 3.1 102930 73
2002-03-28 07:17:51 51°13.689 2°55.906 3.8 255 3.1 102930 73
2002-03-28 07:17:55 51°13.689 2°55.906 3.4 266 3.1 102930 73
2002-03-28 07:18:00 51°13.689 2°55.906 3.2 265 3.1 102930 73
2002-03-28 07:18:05 51°13.689 2°55.906 3 269 3.2 102930 73
2002-03-28 07:18:09 51°13.689 2°55.906 3.1 263 3.2 102930 73
2002-03-28 07:18:15 51°13.69 2°55.906 3.1 250 3.1 102930 73
2002-03-28 07:18:20 51°13.69 2°55.906 2.8 259 3.1 102930 73
2002-03-28 07:18:25 51°13.69 2°55.906 3.3 256 3.1 102930 73
2002-03-28 07:18:30 51°13.69 2°55.906 3.3 268 3.1 102930 73
2002-03-28 07:18:35 51°13.69 2°55.906 3.2 255 3.1 102930 73
2002-03-28 07:18:39 51°13.69 2°55.906 2.8 252 3.1 102930 73
2002-03-28 07:18:45 51°13.69 2°55.906 2.7 246 3.1 102930 73
2002-03-28 07:18:51 51°13.69 2°55.906 3.6 267 3.1 102930 73
2002-03-28 07:18:55 51°13.69 2°55.906 3.8 262 3.1 102930 73
2002-03-28 07:18:59 51°13.69 2°55.906 3.7 255 3.1 102930 73
2002-03-28 07:19:05 51°13.69 2°55.906 3.7 260 3.1 102930 73
2002-03-28 07:19:09 51°13.69 2°55.906 3.5 258 3.1 102930 73
2002-03-28 07:19:15 51°13.69 2°55.907 3.6 259 3.1 102930 73
2002-03-28 07:19:21 51°13.69 2°55.907 3.4 256 3.1 102930 73
2002-03-28 07:19:25 51°13.69 2°55.907 3.3 259 3.1 102930 73
2002-03-28 07:19:30 51°13.69 2°55.907 3.5 262 3.1 102930 73
2002-03-28 07:19:35 51°13.69 2°55.906 3.8 261 3.1 102930 73
2002-03-28 07:19:40 51°13.69 2°55.907 3.1 258 3.1 102930 73
2002-03-28 07:19:45 51°13.69 2°55.907 3.7 260 3.1 102930 73
2002-03-28 07:19:50 51°13.69 2°55.907 3.7 257 3.1 102930 73
2002-03-28 07:19:55 51°13.69 2°55.907 3 238 3.1 102930 73
2002-03-28 07:20:01 51°13.69 2°55.907 3.2 255 3.1 102930 73
2002-03-28 07:20:05 51°13.69 2°55.906 3.5 261 3.1 102930 73
2002-03-28 07:20:11 51°13.69 2°55.907 3.8 261 3.1 102930 73
2002-03-28 07:20:15 51°13.69 2°55.906 3.6 253 3.1 102930 73
2002-03-28 07:20:20 51°13.69 2°55.907 3.4 258 3.1 102930 73
2002-03-28 07:20:25 51°13.69 2°55.907 2.2 255 3.1 102930 73
2002-03-28 07:20:31 51°13.69 2°55.907 3.6 250 3.1 102930 73
2002-03-28 07:20:35 51°13.69 2°55.907 3.6 251 3.1 102930 73
2002-03-28 07:20:41 51°13.69 2°55.907 3.2 258 3.1 102930 73
2002-03-28 07:20:45 51°13.69 2°55.907 3 259 3.1 102930 73
2002-03-28 07:20:50 51°13.69 2°55.907 2.8 268 3.1 102930 73
2002-03-28 07:20:55 51°13.69 2°55.907 2.8 263 3.1 102930 73
2002-03-28 07:21:00 51°13.69 2°55.907 2.7 266 3.1 102930 73
2002-03-28 07:21:05 51°13.69 2°55.907 2.7 250 3.1 102930 73
2002-03-28 07:21:11 51°13.69 2°55.907 3 255 3.1 102930 73
2002-03-28 07:21:15 51°13.69 2°55.907 3 250 3.1 102930 73
2002-03-28 07:21:21 51°13.69 2°55.907 2.2 251 3.1 102930 73
2002-03-28 07:21:25 51°13.691 2°55.907 1.9 248 3.1 102930 73
2002-03-28 07:21:29 51°13.691 2°55.907 1.7 234 3.1 102930 73
2002-03-28 07:21:35 51°13.691 2°55.907 1.7 262 3.1 102930 73
2002-03-28 07:21:40 51°13.691 2°55.907 2.6 253 3.1 102930 73
2002-03-28 07:21:45 51°13.691 2°55.907 2.6 258 3.1 102930 74
2002-03-28 07:21:50 51°13.691 2°55.907 3.2 257 3.1 102930 74
2002-03-28 07:21:55 51°13.691 2°55.907 2.9 262 3.1 102930 74
2002-03-28 07:22:00 51°13.691 2°55.907 2.6 264 3.1 102930 74
2002-03-28 07:22:05 51°13.691 2°55.907 3.1 265 3.1 102930 74
2002-03-28 07:22:10 51°13.691 2°55.907 2.9 263 3.1 102930 74
2002-03-28 07:22:15 51°13.691 2°55.907 3 269 3.1 102930 74
2002-03-28 07:22:20 51°13.691 2°55.907 2.4 258 3.1 102930 74
2002-03-28 07:22:25 51°13.691 2°55.907 2 244 3.1 102930 74
2002-03-28 07:22:30 51°13.691 2°55.907 1.6 260 3.1 102930 74
2002-03-28 07:22:35 51°13.691 2°55.907 2 259 3.1 102930 74
2002-03-28 07:22:39 51°13.691 2°55.907 2.8 263 3.1 102930 74
2002-03-28 07:22:45 51°13.691 2°55.907 3 262 3.1 102930 74
2002-03-28 07:22:51 51°13.691 2°55.907 2.7 251 3.1 102930 74
2002-03-28 07:22:55 51°13.691 2°55.907 2.8 262 3.1 102930 74
2002-03-28 07:23:00 51°13.691 2°55.907 3.3 260 3.1 102930 74
2002-03-28 07:23:05 51°13.691 2°55.907 2.4 254 3.2 102930 74
2002-03-28 07:23:09 51°13.691 2°55.907 2.2 263 3.2 102930 74
2002-03-28 07:23:15 51°13.691 2°55.907 3.3 268 3.2 102930 75
2002-03-28 07:23:20 51°13.691 2°55.907 3.1 257 3.2 102930 75
2002-03-28 07:23:25 51°13.691 2°55.907 2.4 239 3.2 102930 75
2002-03-28 07:23:31 51°13.689 2°55.907 2.1 236 3.2 102930 75
2002-03-28 07:23:35 51°13.689 2°55.907 1.9 272 3.2 102930 75
2002-03-28 07:23:40 51°13.689 2°55.907 2.6 267 3.2 102930 75
2002-03-28 07:23:45 51°13.689 2°55.907 2.4 265 3.2 102930 75
2002-03-28 07:23:50 51°13.688 2°55.907 2.8 262 3.2 102930 75
2002-03-28 07:23:55 51°13.688 2°55.907 2.4 269 3.2 102930 75
2002-03-28 07:24:00 51°13.688 2°55.907 2 261 3.2 102930 75
2002-03-28 07:24:05 51°13.688 2°55.906 1.9 252 3.2 102930 75
2002-03-28 07:24:11 51°13.688 2°55.907 2.4 254 3.2 102930 75
2002-03-28 07:24:15 51°13.688 2°55.907 3 254 3.2 102930 74
2002-03-28 07:24:21 51°13.688 2°55.906 3.1 250 3.2 102930 74
2002-03-28 07:24:25 51°13.688 2°55.906 2.2 246 3.2 102930 74
2002-03-28 07:24:31 51°13.688 2°55.906 2 261 3.2 102930 74
2002-03-28 07:24:35 51°13.688 2°55.906 1.3 244 3.3 102930 74
2002-03-28 07:24:40 51°13.688 2°55.906 1.4 252 3.3 102930 74
2002-03-28 07:24:45 51°13.688 2°55.906 2.3 253 3.3 102940 74
2002-03-28 07:24:51 51°13.688 2°55.906 1.9 256 3.3 102940 74
2002-03-28 07:24:55 51°13.688 2°55.906 2.1 245 3.3 102930 75
2002-03-28 07:25:01 51°13.688 2°55.906 2.8 260 3.3 102930 75
2002-03-28 07:25:05 51°13.688 2°55.906 3.3 261 3.3 102930 75
2002-03-28 07:25:11 51°13.688 2°55.906 3 263 3.3 102930 75
2002-03-28 07:25:15 51°13.687 2°55.906 3 260 3.3 102930 75
2002-03-28 07:25:21 51°13.687 2°55.906 3.1 258 3.3 102930 75
2002-03-28 07:25:26 51°13.687 2°55.906 3.1 262 3.3 102930 75
2002-03-28 07:25:31 51°13.687 2°55.906 3.3 259 3.3 102930 75
2002-03-28 07:25:36 51°13.687 2°55.906 4.2 265 3.3 102940 74
2002-03-28 07:25:41 51°13.687 2°55.906 3.6 251 3.3 102940 74
2002-03-28 07:25:46 51°13.687 2°55.906 3.5 264 3.3 102940 74
2002-03-28 07:25:51 51°13.687 2°55.906 3.6 256 3.3 102940 74
2002-03-28 07:25:56 51°13.687 2°55.906 3.4 248 3.3 102930 74
2002-03-28 07:26:01 51°13.687 2°55.906 3.2 254 3.3 102930 74
2002-03-28 07:26:06 51°13.687 2°55.906 2.8 238 3.3 102930 73
2002-03-28 07:26:11 51°13.687 2°55.906 2.8 248 3.3 102930 73
2002-03-28 07:26:16 51°13.687 2°55.906 3.3 247 3.3 102930 73
2002-03-28 07:26:21 51°13.687 2°55.906 3.3 244 3.3 102930 73
2002-03-28 07:26:26 51°13.687 2°55.906 3 255 3.3 102930 73
2002-03-28 07:26:31 51°13.687 2°55.906 2.8 259 3.3 102930 73
2002-03-28 07:26:36 51°13.687 2°55.906 2.5 244 3.3 102930 73
2002-03-28 07:26:41 51°13.687 2°55.906 2.4 260 3.3 102930 73
2002-03-28 07:26:46 51°13.687 2°55.906 2 271 3.3 102930 74
2002-03-28 07:26:51 51°13.687 2°55.906 1.8 254 3.3 102930 74
2002-03-28 07:26:55 51°13.687 2°55.906 2.3 241 3.3 102930 74
2002-03-28 07:27:01 51°13.687 2°55.906 2.2 257 3.3 102930 74
2002-03-28 07:27:05 51°13.688 2°55.907 1.8 275 3.3 102930 74
2002-03-28 07:27:09 51°13.688 2°55.907 2.2 275 3.3 102930 74
2002-03-28 07:27:15 51°13.689 2°55.907 2.6 263 3.3 102930 74
2002-03-28 07:27:20 51°13.688 2°55.907 2.4 261 3.3 102930 74
2002-03-28 07:27:24 51°13.688 2°55.907 2.7 266 3.3 102930 74
2002-03-28 07:27:29 51°13.688 2°55.907 2.3 253 3.3 102930 74
2002-03-28 07:27:36 51°13.688 2°55.906 1.7 250 3.3 102930 74
2002-03-28 07:27:42 51°13.688 2°55.906 2.4 246 3.3 102930 74
2002-03-28 07:27:46 51°13.688 2°55.906 2.6 267 3.3 102930 74
2002-03-28 07:27:51 51°13.688 2°55.906 2.2 260 3.3 102930 74
2002-03-28 07:27:56 51°13.688 2°55.906 3.1 252 3.3 102930 74
2002-03-28 07:28:01 51°13.688 2°55.906 3 265 3.3 102930 74
2002-03-28 07:28:05 51°13.688 2°55.906 2.5 251 3.3 102930 74
2002-03-28 07:28:10 51°13.688 2°55.906 2.1 268 3.3 102930 74
2002-03-28 07:28:16 51°13.688 2°55.906 1.8 262 3.4 102930 75
2002-03-28 07:28:20 51°13.688 2°55.906 2.8 259 3.4 102930 75
2002-03-28 07:28:25 51°13.688 2°55.906 2.8 263 3.4 102930 75
2002-03-28 07:28:31 51°13.688 2°55.906 2.7 253 3.4 102930 75
2002-03-28 07:28:36 51°13.688 2°55.906 2.3 242 3.4 102930 74
2002-03-28 07:28:42 51°13.688 2°55.906 2.6 275 3.4 102930 74
2002-03-28 07:28:46 51°13.688 2°55.906 2.4 243 3.4 102930 74
2002-03-28 07:28:52 51°13.688 2°55.906 2.4 243 3.4 102930 74
2002-03-28 07:28:56 51°13.688 2°55.906 2.3 236 3.4 102930 74
2002-03-28 07:29:00 51°13.688 2°55.906 2.1 244 3.4 102930 74
2002-03-28 07:29:05 51°13.688 2°55.907 2.4 241 3.4 102930 74
2002-03-28 07:29:10 51°13.689 2°55.907 1.8 259 3.4 102930 74
2002-03-28 07:29:15 51°13.689 2°55.907 2.6 253 3.4 102930 74
2002-03-28 07:29:20 51°13.689 2°55.907 2.6 279 3.4 102930 74
2002-03-28 07:29:25 51°13.689 2°55.907 2.2 274 3.4 102930 74
2002-03-28 07:29:31 51°13.689 2°55.907 2.4 254 3.4 102930 74
2002-03-28 07:29:36 51°13.689 2°55.907 2.6 264 3.4 102930 74
2002-03-28 07:29:41 51°13.689 2°55.907 2.7 257 3.4 102930 74
2002-03-28 07:29:46 51°13.688 2°55.906 3.8 263 3.4 102930 74
2002-03-28 07:29:50 51°13.688 2°55.906 3.2 268 3.4 102930 74
2002-03-28 07:29:56 51°13.688 2°55.906 2.6 258 3.4 102930 74
2002-03-28 07:30:01 51°13.688 2°55.906 3 247 3.4 102930 74
2002-03-28 07:30:05 51°13.688 2°55.906 3.5 239 3.4 102930 74
2002-03-28 07:30:10 51°13.688 2°55.906 3.1 242 3.4 102930 74
2002-03-28 07:30:15 51°13.688 2°55.906 2.8 252 3.4 102930 74
2002-03-28 07:30:20 51°13.688 2°55.906 2.7 249 3.4 102930 74
2002-03-28 07:30:25 51°13.688 2°55.906 2.2 251 3.4 102930 73
2002-03-28 07:30:31 51°13.688 2°55.906 2.8 251 3.4 102930 73
2002-03-28 07:30:35 51°13.688 2°55.906 2.6 245 3.4 102930 73
2002-03-28 07:30:41 51°13.688 2°55.906 2.9 258 3.4 102930 73
2002-03-28 07:30:46 51°13.688 2°55.906 2.7 251 3.4 102930 73
2002-03-28 07:30:52 51°13.687 2°55.906 2.4 249 3.4 102930 73
2002-03-28 07:30:56 51°13.687 2°55.906 1.8 241 3.4 102920 73
2002-03-28 07:31:01 51°13.687 2°55.906 2.4 259 3.4 102920 73
2002-03-28 07:31:06 51°13.687 2°55.906 3.3 249 3.4 102930 74
2002-03-28 07:31:11 51°13.687 2°55.906 2 255 3.4 102930 74
2002-03-28 07:31:16 51°13.686 2°55.905 2.4 277 3.4 102920 74
2002-03-28 07:31:20 51°13.686 2°55.905 2.4 269 3.4 102920 74
2002-03-28 07:31:26 51°13.686 2°55.905 2.9 258 3.4 102920 74
2002-03-28 07:31:29 51°13.686 2°55.905 2.4 249 3.4 102920 74
2002-03-28 07:31:35 51°13.687 2°55.906 2.1 256 3.4 102920 74
2002-03-28 07:31:40 51°13.687 2°55.906 2 252 3.4 102920 74
2002-03-28 07:31:45 51°13.688 2°55.906 2.4 273 3.5 102920 74
2002-03-28 07:31:50 51°13.688 2°55.906 2.3 263 3.5 102920 74
2002-03-28 07:31:56 51°13.688 2°55.906 2.6 258 3.5 102920 74
2002-03-28 07:32:01 51°13.687 2°55.906 3.1 269 3.5 102920 74
2002-03-28 07:32:06 51°13.686 2°55.905 2.8 267 3.4 102920 74
2002-03-28 07:32:10 51°13.686 2°55.905 3 263 3.4 102920 74
2002-03-28 07:32:16 51°13.686 2°55.905 2.9 262 3.5 102920 74
2002-03-28 07:32:20 51°13.686 2°55.905 3 246 3.5 102920 74
2002-03-28 07:32:24 51°13.686 2°55.905 2.9 246 3.5 102920 74
2002-03-28 07:32:29 51°13.687 2°55.906 2.4 252 3.5 102920 74
2002-03-28 07:32:35 51°13.688 2°55.906 3 244 3.4 102920 73
2002-03-28 07:32:40 51°13.688 2°55.906 3 248 3.4 102920 73
2002-03-28 07:32:45 51°13.689 2°55.906 4.1 259 3.5 102920 73
2002-03-28 07:32:50 51°13.689 2°55.906 3.7 266 3.5 102920 73
2002-03-28 07:32:55 51°13.689 2°55.906 2.7 248 3.5 102920 73
2002-03-28 07:33:00 51°13.689 2°55.907 3.3 267 3.5 102920 73
2002-03-28 07:33:05 51°13.689 2°55.907 2.4 263 3.4 102920 73
2002-03-28 07:33:10 51°13.689 2°55.907 1.8 248 3.4 102920 73
2002-03-28 07:33:16 51°13.688 2°55.906 1.9 239 3.4 102920 73
2002-03-28 07:33:20 51°13.688 2°55.906 1.6 240 3.4 102920 73
2002-03-28 07:33:25 51°13.688 2°55.906 2.1 259 3.4 102920 73
2002-03-28 07:33:31 51°13.688 2°55.906 1.8 259 3.4 102920 73
2002-03-28 07:33:35 51°13.689 2°55.906 2.5 268 3.5 102920 74
2002-03-28 07:33:40 51°13.689 2°55.906 2.7 255 3.5 102920 74
2002-03-28 07:33:45 51°13.689 2°55.907 2.8 261 3.4 102920 74
2002-03-28 07:33:51 51°13.69 2°55.907 2.8 252 3.4 102920 74
2002-03-28 07:33:55 51°13.689 2°55.906 2.6 251 3.5 102920 74
2002-03-28 07:34:02 51°13.689 2°55.906 2.6 244 3.5 102920 74
2002-03-28 07:34:06 51°13.688 2°55.906 2.4 252 3.5 102920 74
2002-03-28 07:34:11 51°13.688 2°55.906 3 260 3.5 102920 74
2002-03-28 07:34:16 51°13.688 2°55.906 2.7 257 3.5 102920 74
2002-03-28 07:34:21 51°13.688 2°55.906 2.5 260 3.5 102920 74
2002-03-28 07:34:26 51°13.688 2°55.906 2.2 246 3.5 102920 74
2002-03-28 07:34:30 51°13.689 2°55.906 2.9 250 3.5 102920 74
2002-03-28 07:34:36 51°13.689 2°55.906 2.3 246 3.5 102920 74
2002-03-28 07:34:40 51°13.689 2°55.906 2.2 231 3.5 102920 74
2002-03-28 07:34:45 51°13.689 2°55.906 2 272 3.5 102920 74
2002-03-28 07:34:51 51°13.688 2°55.905 2 286 3.5 102920 74
2002-03-28 07:34:55 51°13.688 2°55.905 1.9 275 3.5 102920 74
2002-03-28 07:35:01 51°13.689 2°55.905 2.4 266 3.5 102920 74
2002-03-28 07:35:06 51°13.689 2°55.905 2.3 254 3.5 102920 74
2002-03-28 07:35:11 51°13.689 2°55.905 2.4 262 3.5 102920 74
2002-03-28 07:35:16 51°13.689 2°55.905 2.3 249 3.6 102920 74
2002-03-28 07:35:21 51°13.689 2°55.905 2.6 267 3.6 102920 74
2002-03-28 07:35:26 51°13.689 2°55.905 2.9 250 3.6 102920 74
2002-03-28 07:35:31 51°13.689 2°55.905 2 273 3.6 102920 74
2002-03-28 07:35:35 51°13.689 2°55.905 2.3 272 3.6 102920 74
2002-03-28 07:35:40 51°13.69 2°55.906 2.3 275 3.6 102920 74
2002-03-28 07:35:45 51°13.691 2°55.906 2.9 254 3.6 102920 74
2002-03-28 07:35:51 51°13.691 2°55.906 2.6 259 3.6 102920 74
2002-03-28 07:35:55 51°13.691 2°55.906 3.5 270 3.6 102920 74
2002-03-28 07:36:01 51°13.692 2°55.906 3.4 248 3.6 102920 74
2002-03-28 07:36:05 51°13.692 2°55.906 2.8 254 3.6 102930 74
2002-03-28 07:36:11 51°13.691 2°55.906 2.6 259 3.6 102930 74
2002-03-28 07:36:15 51°13.691 2°55.906 2.3 266 3.6 102920 74
2002-03-28 07:36:21 51°13.691 2°55.906 2.9 268 3.6 102920 74
2002-03-28 07:36:25 51°13.691 2°55.906 2.7 254 3.6 102920 74
2002-03-28 07:36:30 51°13.691 2°55.906 2.5 256 3.6 102920 74
2002-03-28 07:36:35 51°13.691 2°55.906 2.4 245 3.6 102920 74
2002-03-28 07:36:41 51°13.691 2°55.906 2.6 261 3.6 102920 74
2002-03-28 07:36:45 51°13.691 2°55.906 2.3 247 3.6 102930 74
2002-03-28 07:36:51 51°13.691 2°55.906 2.3 242 3.6 102930 74
2002-03-28 07:36:56 51°13.691 2°55.906 3.3 262 3.6 102920 74
2002-03-28 07:37:01 51°13.69 2°55.906 3.1 258 3.6 102920 74
2002-03-28 07:37:06 51°13.689 2°55.905 2.7 258 3.6 102920 74
2002-03-28 07:37:10 51°13.689 2°55.905 2.6 253 3.6 102920 74
2002-03-28 07:37:16 51°13.689 2°55.905 2.8 257 3.6 102920 74
2002-03-28 07:37:20 51°13.688 2°55.905 2.6 261 3.6 102920 74
2002-03-28 07:37:26 51°13.688 2°55.905 2.7 272 3.6 102920 74
2002-03-28 07:37:31 51°13.688 2°55.905 2.4 255 3.6 102920 74
2002-03-28 07:37:36 51°13.688 2°55.905 2.1 267 3.6 102920 74
2002-03-28 07:37:41 51°13.688 2°55.905 2.1 254 3.6 102920 74
2002-03-28 07:37:46 51°13.688 2°55.905 1.5 254 3.6 102920 74
2002-03-28 07:37:51 51°13.688 2°55.905 1.2 250 3.6 102920 74
2002-03-28 07:37:55 51°13.688 2°55.905 1.6 244 3.6 102920 74
2002-03-28 07:38:00 51°13.688 2°55.905 1.4 252 3.6 102920 74
2002-03-28 07:38:05 51°13.688 2°55.905 2.6 243 3.6 102920 74
2002-03-28 07:38:11 51°13.689 2°55.905 2.3 253 3.6 102920 74
2002-03-28 07:38:16 51°13.688 2°55.905 1.9 251 3.6 102920 74
2002-03-28 07:38:21 51°13.688 2°55.905 2.2 262 3.6 102920 74
2002-03-28 07:38:26 51°13.688 2°55.905 2.1 242 3.7 102920 74
2002-03-28 07:38:31 51°13.688 2°55.905 2.2 258 3.7 102920 74
2002-03-28 07:38:36 51°13.688 2°55.905 2.7 248 3.7 102920 74
2002-03-28 07:38:41 51°13.687 2°55.905 2.8 250 3.7 102920 74
2002-03-28 07:38:45 51°13.687 2°55.905 2.4 241 3.7 102920 74
2002-03-28 07:38:49 51°13.687 2°55.905 2.3 268 3.7 102920 74
2002-03-28 07:38:56 51°13.686 2°55.904 2.2 243 3.7 102920 74
2002-03-28 07:39:01 51°13.687 2°55.904 2.9 259 3.7 102920 74
2002-03-28 07:39:05 51°13.687 2°55.904 2.5 256 3.7 102920 74
2002-03-28 07:39:09 51°13.687 2°55.904 2.3 266 3.7 102920 74
2002-03-28 07:39:16 51°13.687 2°55.905 2.9 275 3.7 102920 74
2002-03-28 07:39:21 51°13.687 2°55.905 2.9 273 3.7 102920 74
2002-03-28 07:39:25 51°13.687 2°55.905 2.6 273 3.7 102920 74
2002-03-28 07:39:31 51°13.687 2°55.905 3 269 3.7 102920 74
2002-03-28 07:39:35 51°13.687 2°55.905 3.3 269 3.7 102920 74
2002-03-28 07:39:41 51°13.688 2°55.905 2.5 264 3.7 102920 74
2002-03-28 07:39:45 51°13.689 2°55.906 3.2 260 3.7 102920 74
2002-03-28 07:39:51 51°13.689 2°55.906 3 251 3.7 102920 74
2002-03-28 07:39:55 51°13.689 2°55.906 3.6 280 3.8 102920 74
2002-03-28 07:40:01 51°13.689 2°55.906 3.2 266 3.8 102920 74
2002-03-28 07:40:05 51°13.689 2°55.906 2.3 269 3.8 102920 74
2002-03-28 07:40:11 51°13.689 2°55.906 2.5 263 3.8 102920 74
2002-03-28 07:40:16 51°13.689 2°55.906 2.5 283 3.8 102920 74
2002-03-28 07:40:21 51°13.689 2°55.905 2.2 278 3.8 102920 74
2002-03-28 07:40:26 51°13.688 2°55.905 2.4 264 3.8 102920 74
2002-03-28 07:40:31 51°13.688 2°55.905 2.5 255 3.8 102920 74
2002-03-28 07:40:36 51°13.688 2°55.905 2.6 264 3.8 102920 73
2002-03-28 07:40:41 51°13.688 2°55.905 3 262 3.8 102920 73
2002-03-28 07:40:45 51°13.688 2°55.905 3.1 256 3.8 102920 73
2002-03-28 07:40:51 51°13.687 2°55.905 2.3 255 3.8 102920 73
2002-03-28 07:40:55 51°13.687 2°55.905 2.2 252 3.8 102920 73
2002-03-28 07:41:01 51°13.688 2°55.905 3 268 3.8 102920 73
2002-03-28 07:41:05 51°13.688 2°55.905 3.6 267 3.8 102920 73
2002-03-28 07:41:11 51°13.688 2°55.905 3.9 260 3.8 102920 73
2002-03-28 07:41:15 51°13.688 2°55.905 3.2 266 3.8 102920 73
2002-03-28 07:41:21 51°13.688 2°55.905 3.4 267 3.8 102920 73
2002-03-28 07:41:26 51°13.687 2°55.905 3.1 259 3.8 102920 73
2002-03-28 07:41:30 51°13.687 2°55.905 3.1 264 3.8 102920 73
2002-03-28 07:41:36 51°13.687 2°55.905 2.8 261 3.8 102920 73
2002-03-28 07:41:41 51°13.687 2°55.905 2.8 266 3.8 102920 73
2002-03-28 07:41:45 51°13.687 2°55.905 2.4 242 3.8 102920 73
2002-03-28 07:41:51 51°13.688 2°55.905 3.2 267 3.8 102920 73
2002-03-28 07:41:55 51°13.688 2°55.905 2.7 258 3.8 102920 73
2002-03-28 07:42:00 51°13.688 2°55.905 2.9 265 3.8 102920 73
2002-03-28 07:42:05 51°13.688 2°55.905 2.6 263 3.8 102920 73
2002-03-28 07:42:10 51°13.688 2°55.905 2.3 266 3.8 102920 73
2002-03-28 07:42:15 51°13.688 2°55.905 2.4 248 3.8 102920 73
2002-03-28 07:42:20 51°13.688 2°55.905 2.8 245 3.8 102920 73
2002-03-28 07:42:25 51°13.689 2°55.905 2.5 252 3.8 102920 73
2002-03-28 07:42:32 51°13.689 2°55.905 2.6 258 3.8 102920 73
2002-03-28 07:42:36 51°13.688 2°55.905 2.6 259 3.8 102920 73
2002-03-28 07:42:41 51°13.688 2°55.905 2.5 265 3.8 102920 73
2002-03-28 07:42:46 51°13.688 2°55.905 2.3 262 3.8 102920 73
2002-03-28 07:42:51 51°13.688 2°55.905 2.2 262 3.8 102920 73
2002-03-28 07:42:56 51°13.688 2°55.905 2.4 252 3.8 102920 73
2002-03-28 07:43:01 51°13.687 2°55.905 2.3 254 3.8 102920 73
2002-03-28 07:43:06 51°13.687 2°55.905 2 252 3.8 102920 73
2002-03-28 07:43:11 51°13.687 2°55.905 1.8 253 3.8 102920 73
2002-03-28 07:43:16 51°13.687 2°55.905 1.9 239 3.8 102920 73
2002-03-28 07:43:21 51°13.687 2°55.905 1.6 238 3.8 102920 73
2002-03-28 07:43:26 51°13.687 2°55.905 2.4 251 3.8 102930 73
2002-03-28 07:43:31 51°13.687 2°55.905 2.3 251 3.8 102930 73
2002-03-28 07:43:36 51°13.687 2°55.905 2.3 244 3.8 102920 74
2002-03-28 07:43:40 51°13.687 2°55.905 2.4 242 3.8 102920 74
2002-03-28 07:43:45 51°13.687 2°55.905 2.4 240 3.9 102930 74
2002-03-28 07:43:51 51°13.687 2°55.905 3 234 3.9 102930 74
2002-03-28 07:43:55 51°13.687 2°55.905 2.5 247 3.9 102920 74
2002-03-28 07:44:00 51°13.687 2°55.905 2.1 244 3.9 102920 74
2002-03-28 07:44:05 51°13.687 2°55.905 2.4 226 3.9 102920 73
2002-03-28 07:44:09 51°13.686 2°55.905 2.7 241 3.9 102920 73
2002-03-28 07:44:15 51°13.686 2°55.904 2.5 244 3.9 102920 73
2002-03-28 07:44:20 51°13.686 2°55.904 2.4 238 3.9 102920 73
2002-03-28 07:44:25 51°13.686 2°55.904 2 237 3.9 102930 74
2002-03-28 07:44:29 51°13.686 2°55.904 2.2 251 3.9 102930 74
2002-03-28 07:44:35 51°13.686 2°55.904 2.8 237 3.9 102930 74
2002-03-28 07:44:40 51°13.686 2°55.904 2.5 230 3.9 102930 74
2002-03-28 07:44:45 51°13.686 2°55.904 2.4 232 4 102930 74
2002-03-28 07:44:50 51°13.686 2°55.904 1.8 224 4 102930 74
2002-03-28 07:44:55 51°13.686 2°55.904 1.7 236 3.9 102930 73
2002-03-28 07:45:00 51°13.686 2°55.904 1.4 234 3.9 102930 73
2002-03-28 07:45:05 51°13.686 2°55.904 1.7 222 3.9 102930 73
2002-03-28 07:45:10 51°13.686 2°55.904 2.1 252 3.9 102930 73
2002-03-28 07:45:15 51°13.686 2°55.904 1.6 256 4 102930 73
2002-03-28 07:45:20 51°13.686 2°55.904 2.4 243 4 102930 73
2002-03-28 07:45:25 51°13.686 2°55.904 2.5 235 4 102930 73
2002-03-28 07:45:30 51°13.685 2°55.904 2.8 229 4 102930 73
2002-03-28 07:45:35 51°13.685 2°55.904 2.7 225 4 102930 73
2002-03-28 07:45:40 51°13.685 2°55.904 2.8 221 4 102930 73
2002-03-28 07:45:45 51°13.685 2°55.904 2.7 232 4 102930 74
2002-03-28 07:45:50 51°13.685 2°55.904 3 245 4 102930 74
2002-03-28 07:45:55 51°13.685 2°55.904 3.3 236 4 102930 73
2002-03-28 07:46:01 51°13.685 2°55.904 2.9 239 4 102930 73
2002-03-28 07:46:05 51°13.686 2°55.904 2.5 234 4 102920 73
2002-03-28 07:46:11 51°13.686 2°55.903 2.1 227 4 102920 73
2002-03-28 07:46:15 51°13.686 2°55.901 2.1 234 4 102930 72
2002-03-28 07:46:20 51°13.687 2°55.899 2.1 235 4 102930 72
2002-03-28 07:46:25 51°13.688 2°55.895 1.9 231 4 102930 72
2002-03-28 07:46:31 51°13.689 2°55.89 1.6 234 4 102930 72
2002-03-28 07:46:36 51°13.69 2°55.884 1.9 230 4 102930 72
2002-03-28 07:46:41 51°13.691 2°55.878 1.8 236 4 102930 72
2002-03-28 07:46:46 51°13.692 2°55.872 1.7 223 4 102920 73
2002-03-28 07:46:51 51°13.693 2°55.866 1.1 240 4 102920 73
2002-03-28 07:46:56 51°13.694 2°55.858 1.1 213 4 102930 72
2002-03-28 07:47:01 51°13.695 2°55.851 1.2 228 4 102930 72
2002-03-28 07:47:06 51°13.696 2°55.843 0.7 225 4 102930 72
2002-03-28 07:47:11 51°13.697 2°55.835 0.6 212 4 102930 72
2002-03-28 07:47:16 51°13.698 2°55.828 1.1 226 4 102930 72
2002-03-28 07:47:21 51°13.699 2°55.821 1 227 4 102930 72
2002-03-28 07:47:26 51°13.699 2°55.814 1.1 243 4 102930 72
2002-03-28 07:47:30 51°13.699 2°55.809 1.1 219 4 102930 72
2002-03-28 07:47:35 51°13.7 2°55.801 1.1 219 4 102930 72
2002-03-28 07:47:40 51°13.7 2°55.794 1.1 220 4 102930 72
2002-03-28 07:47:46 51°13.7 2°55.785 1.3 215 4.1 102930 72
2002-03-28 07:47:51 51°13.701 2°55.778 1.6 210 4.1 102930 72
2002-03-28 07:47:57 51°13.701 2°55.769 1.2 204 4.1 102930 72
2002-03-28 07:48:01 51°13.701 2°55.764 1.4 206 4.1 102930 72
2002-03-28 07:48:06 51°13.7 2°55.758 1.8 204 4.1 102930 72
2002-03-28 07:48:11 51°13.7 2°55.751 2.1 209 4.1 102930 72
2002-03-28 07:48:16 51°13.7 2°55.745 1.6 209 4.1 102930 72
2002-03-28 07:48:20 51°13.7 2°55.74 1.5 199 4.1 102930 72
2002-03-28 07:48:25 51°13.699 2°55.735 1.7 206 4.1 102930 72
2002-03-28 07:48:30 51°13.699 2°55.73 1.2 192 4.1 102930 72
2002-03-28 07:48:35 51°13.698 2°55.724 1.2 178 4.1 102930 72
2002-03-28 07:48:40 51°13.698 2°55.72 1.6 204 4.1 102930 72
2002-03-28 07:48:45 51°13.698 2°55.717 2.6 197 4.1 102930 72
2002-03-28 07:48:51 51°13.699 2°55.716 2.5 203 4.1 102930 72
2002-03-28 07:48:55 51°13.7 2°55.716 3.4 193 4.1 102930 72
2002-03-28 07:49:00 51°13.702 2°55.718 3.2 184 4.1 102930 72
2002-03-28 07:49:05 51°13.706 2°55.721 3.4 176 4.1 102930 72
2002-03-28 07:49:10 51°13.71 2°55.723 3.2 176 4.1 102930 72
2002-03-28 07:49:15 51°13.716 2°55.724 3.8 167 4.1 102920 72
2002-03-28 07:49:20 51°13.722 2°55.724 2.9 165 4.1 102920 72
2002-03-28 07:49:25 51°13.728 2°55.722 3.1 157 4.1 102920 72
2002-03-28 07:49:31 51°13.737 2°55.718 2.7 155 4.1 102920 72
2002-03-28 07:49:35 51°13.742 2°55.715 2.4 169 4.1 102920 72
2002-03-28 07:49:40 51°13.75 2°55.709 2 175 4.1 102920 72
2002-03-28 07:49:45 51°13.758 2°55.702 2.2 189 4.1 102920 71
2002-03-28 07:49:50 51°13.767 2°55.695 2.6 192 4.1 102920 71
2002-03-28 07:49:55 51°13.777 2°55.687 2.7 216 4.1 102920 71
2002-03-28 07:50:00 51°13.786 2°55.679 2.8 189 4.1 102920 71
2002-03-28 07:50:05 51°13.796 2°55.67 2.5 186 4.1 102920 71
2002-03-28 07:50:11 51°13.807 2°55.659 2.6 186 4.1 102920 71
2002-03-28 07:50:15 51°13.816 2°55.652 3.6 218 4.1 102930 72
2002-03-28 07:50:20 51°13.826 2°55.642 3.5 205 4.1 102930 72
2002-03-28 07:50:25 51°13.837 2°55.634 2.6 183 4.1 102930 72
2002-03-28 07:50:29 51°13.847 2°55.626 2.1 183 4.1 102930 72
2002-03-28 07:50:35 51°13.86 2°55.616 3 168 4.1 102930 72
2002-03-28 07:50:40 51°13.872 2°55.608 3.5 201 4.1 102930 72
2002-03-28 07:50:45 51°13.883 2°55.599 3.1 216 4 102930 72
2002-03-28 07:50:51 51°13.897 2°55.588 3.3 204 4 102930 72
2002-03-28 07:50:55 51°13.907 2°55.581 3.9 221 4 102920 72
2002-03-28 07:51:00 51°13.919 2°55.573 2.7 208 4 102920 72
2002-03-28 07:51:05 51°13.931 2°55.564 3.5 183 4 102920 72
2002-03-28 07:51:11 51°13.945 2°55.554 3.1 188 4 102920 72
2002-03-28 07:51:15 51°13.954 2°55.547 2.9 183 4 102920 72
2002-03-28 07:51:20 51°13.966 2°55.538 3.3 191 4 102920 72
2002-03-28 07:51:25 51°13.978 2°55.53 2.7 185 4 102920 72
2002-03-28 07:51:30 51°13.989 2°55.521 2 190 4 102920 72
2002-03-28 07:51:35 51°14 2°55.514 2.4 184 4 102920 73
2002-03-28 07:51:40 51°14.01 2°55.506 3 189 4 102920 73
2002-03-28 07:51:45 51°14.02 2°55.498 2.7 178 4 102920 72
2002-03-28 07:51:51 51°14.032 2°55.49 2.6 176 4 102920 72
2002-03-28 07:51:56 51°14.041 2°55.483 2.1 179 4 102920 72
2002-03-28 07:52:00 51°14.049 2°55.478 2 167 4 102920 72
2002-03-28 07:52:05 51°14.058 2°55.471 1.9 165 4 102920 73
2002-03-28 07:52:10 51°14.066 2°55.464 1.9 161 4 102920 73
2002-03-28 07:52:15 51°14.075 2°55.458 1.6 161 4 102920 73
2002-03-28 07:52:20 51°14.083 2°55.451 2.1 148 4 102920 73
2002-03-28 07:52:25 51°14.091 2°55.444 2 155 4 102920 72
2002-03-28 07:52:31 51°14.101 2°55.436 2 162 4 102920 72
2002-03-28 07:52:36 51°14.11 2°55.429 2.2 154 4 102920 72
2002-03-28 07:52:40 51°14.117 2°55.423 1.8 148 4 102920 72
2002-03-28 07:52:45 51°14.125 2°55.416 2.4 188 4 102920 72
2002-03-28 07:52:50 51°14.134 2°55.409 2.7 206 4 102920 72
2002-03-28 07:52:55 51°14.144 2°55.401 2.5 196 4 102920 72
2002-03-28 07:53:01 51°14.155 2°55.391 3.1 207 4 102920 72
2002-03-28 07:53:05 51°14.163 2°55.384 2.4 191 4 102920 72
2002-03-28 07:53:10 51°14.173 2°55.374 2.6 161 4 102920 72
2002-03-28 07:53:15 51°14.184 2°55.364 2.7 180 4 102920 72
2002-03-28 07:53:20 51°14.194 2°55.354 2.2 169 4 102920 72
2002-03-28 07:53:25 51°14.204 2°55.342 2.2 173 4.1 102920 73
2002-03-28 07:53:30 51°14.215 2°55.329 1.6 178 4.1 102920 73
2002-03-28 07:53:35 51°14.225 2°55.316 1.7 209 4.1 102920 72
2002-03-28 07:53:40 51°14.234 2°55.302 2.5 210 4.1 102920 72
2002-03-28 07:53:45 51°14.244 2°55.287 2.7 208 4.1 102920 72
2002-03-28 07:53:51 51°14.255 2°55.268 2.7 205 4.1 102920 72
2002-03-28 07:53:55 51°14.262 2°55.256 2.3 195 4.1 102920 71
2002-03-28 07:54:00 51°14.271 2°55.24 2.2 200 4.1 102920 71
2002-03-28 07:54:05 51°14.279 2°55.224 2.1 193 4.1 102920 72
2002-03-28 07:54:09 51°14.286 2°55.21 1.8 202 4.1 102920 72
2002-03-28 07:54:15 51°14.297 2°55.19 2.4 213 4.1 102910 72
2002-03-28 07:54:20 51°14.306 2°55.173 2.1 204 4.1 102910 72
2002-03-28 07:54:25 51°14.314 2°55.156 1.9 208 4.1 102920 72
2002-03-28 07:54:30 51°14.322 2°55.139 2 216 4.1 102920 72
2002-03-28 07:54:35 51°14.33 2°55.121 2.3 222 4.2 102920 72
2002-03-28 07:54:40 51°14.338 2°55.103 2.6 214 4.2 102920 72
2002-03-28 07:54:44 51°14.345 2°55.089 2.8 213 4.2 102920 72
2002-03-28 07:54:50 51°14.355 2°55.068 2.8 209 4.2 102920 72
2002-03-28 07:54:55 51°14.364 2°55.05 2.6 204 4.2 102920 72
2002-03-28 07:55:00 51°14.372 2°55.031 2.2 219 4.2 102920 72
2002-03-28 07:55:05 51°14.38 2°55.011 2.5 230 4.2 102920 72
2002-03-28 07:55:09 51°14.385 2°54.994 2.7 233 4.2 102920 72
2002-03-28 07:55:15 51°14.393 2°54.969 3.3 238 4.2 102920 72
2002-03-28 07:55:20 51°14.4 2°54.947 3.3 242 4.2 102920 72
2002-03-28 07:55:25 51°14.406 2°54.925 3.4 245 4.2 102920 71
2002-03-28 07:55:31 51°14.411 2°54.897 3.1 250 4.2 102920 71
2002-03-28 07:55:35 51°14.413 2°54.877 3.4 252 4.2 102920 72
2002-03-28 07:55:40 51°14.415 2°54.853 3.9 248 4.2 102920 72
2002-03-28 07:55:45 51°14.417 2°54.828 3.6 246 4.3 102920 72
2002-03-28 07:55:51 51°14.418 2°54.797 3.7 251 4.3 102920 72
2002-03-28 07:55:55 51°14.418 2°54.777 3.8 256 4.3 102910 72
2002-03-28 07:56:00 51°14.419 2°54.75 4 256 4.3 102910 72
2002-03-28 07:56:05 51°14.419 2°54.725 3.9 257 4.3 102920 71
2002-03-28 07:56:09 51°14.419 2°54.704 3.9 267 4.3 102920 71
2002-03-28 07:56:15 51°14.418 2°54.672 3.5 267 4.3 102920 71
2002-03-28 07:56:20 51°14.417 2°54.646 3.9 267 4.3 102920 71
2002-03-28 07:56:25 51°14.415 2°54.62 3.8 264 4.3 102910 72
2002-03-28 07:56:31 51°14.412 2°54.588 4.7 261 4.3 102910 72
2002-03-28 07:56:35 51°14.409 2°54.567 4.2 274 4.3 102910 71
2002-03-28 07:56:41 51°14.404 2°54.536 4.7 275 4.3 102910 71
2002-03-28 07:56:45 51°14.4 2°54.515 4.8 274 4.3 102920 71
2002-03-28 07:56:51 51°14.393 2°54.485 4.9 273 4.3 102920 71
2002-03-28 07:56:55 51°14.388 2°54.465 4.9 276 4.4 102910 71
2002-03-28 07:56:59 51°14.384 2°54.445 4.9 279 4.4 102910 71
2002-03-28 07:57:05 51°14.377 2°54.415 4.8 280 4.4 102910 71
2002-03-28 07:57:11 51°14.368 2°54.385 4.6 276 4.4 102910 71
2002-03-28 07:57:15 51°14.363 2°54.365 4.4 278 4.4 102910 71
2002-03-28 07:57:20 51°14.356 2°54.34 4.6 276 4.4 102910 71
2002-03-28 07:57:25 51°14.349 2°54.314 4.8 274 4.4 102910 71
2002-03-28 07:57:31 51°14.341 2°54.284 4.3 269 4.4 102910 71
2002-03-28 07:57:35 51°14.336 2°54.263 5 274 4.4 102910 71
2002-03-28 07:57:40 51°14.329 2°54.237 4.7 276 4.4 102910 71
2002-03-28 07:57:45 51°14.322 2°54.21 4.7 274 4.5 102910 71
2002-03-28 07:57:51 51°14.313 2°54.179 5 281 4.5 102910 71
2002-03-28 07:57:55 51°14.308 2°54.158 4.5 279 4.5 102910 71
2002-03-28 07:58:00 51°14.301 2°54.131 4.9 269 4.5 102910 71
2002-03-28 07:58:05 51°14.295 2°54.104 5 272 4.5 102910 71
2002-03-28 07:58:10 51°14.287 2°54.077 4.5 267 4.5 102910 71
2002-03-28 07:58:15 51°14.28 2°54.05 4.5 272 4.5 102910 71
2002-03-28 07:58:20 51°14.273 2°54.023 4.5 271 4.5 102910 71
2002-03-28 07:58:25 51°14.266 2°53.996 4.8 267 4.5 102910 70
2002-03-28 07:58:31 51°14.258 2°53.963 5.6 268 4.5 102910 70
2002-03-28 07:58:35 51°14.252 2°53.941 5.1 269 4.5 102910 70
2002-03-28 07:58:40 51°14.246 2°53.914 5.3 267 4.5 102910 70
2002-03-28 07:58:45 51°14.238 2°53.887 5.1 263 4.5 102910 70
2002-03-28 07:58:51 51°14.23 2°53.853 5.2 265 4.5 102910 70
2002-03-28 07:58:55 51°14.224 2°53.831 4.6 266 4.6 102910 70
2002-03-28 07:59:00 51°14.217 2°53.802 5.1 259 4.6 102910 70
2002-03-28 07:59:05 51°14.21 2°53.774 5.1 265 4.6 102910 70
2002-03-28 07:59:11 51°14.202 2°53.739 4.6 270 4.6 102910 70
2002-03-28 07:59:15 51°14.196 2°53.716 5.6 260 4.6 102910 70
2002-03-28 07:59:20 51°14.189 2°53.687 5.5 266 4.6 102910 70
2002-03-28 07:59:25 51°14.181 2°53.658 5.7 263 4.6 102910 70
2002-03-28 07:59:29 51°14.175 2°53.635 5.6 259 4.6 102910 70
2002-03-28 07:59:35 51°14.166 2°53.6 5.9 258 4.6 102910 70
2002-03-28 07:59:40 51°14.157 2°53.571 6.2 255 4.6 102910 70
2002-03-28 07:59:45 51°14.149 2°53.543 6.7 263 4.7 102910 70
2002-03-28 07:59:51 51°14.138 2°53.509 6.8 260 4.7 102910 70
2002-03-28 07:59:55 51°14.13 2°53.487 7.2 270 4.7 102910 70
2002-03-28 08:00:00 51°14.12 2°53.46 6.9 269 4.7 102910 70
2002-03-28 08:00:05 51°14.109 2°53.433 6.8 270 4.7 102910 70
2002-03-28 08:00:11 51°14.097 2°53.4 6.9 269 4.7 102910 70
2002-03-28 08:00:15 51°14.089 2°53.377 6.5 270 4.8 102910 70
2002-03-28 08:00:20 51°14.079 2°53.35 6.2 266 4.8 102910 70
2002-03-28 08:00:25 51°14.069 2°53.322 6.5 265 4.8 102900 69
2002-03-28 08:00:31 51°14.058 2°53.287 6.3 264 4.8 102900 69
2002-03-28 08:00:35 51°14.05 2°53.265 5.8 268 4.8 102910 68
2002-03-28 08:00:40 51°14.04 2°53.237 6.1 263 4.8 102910 68
2002-03-28 08:00:45 51°14.03 2°53.208 6.2 259 4.8 102910 68
2002-03-28 08:00:51 51°14.019 2°53.174 6.7 259 4.8 102910 68
2002-03-28 08:00:55 51°14.011 2°53.151 6.2 258 4.8 102910 68
2002-03-28 08:01:00 51°14.001 2°53.123 6.8 263 4.8 102910 68
2002-03-28 08:01:05 51°13.991 2°53.094 6.4 259 4.8 102910 68
2002-03-28 08:01:10 51°13.981 2°53.066 6 260 4.8 102910 68
2002-03-28 08:01:15 51°13.972 2°53.037 6.6 264 4.8 102910 68
2002-03-28 08:01:20 51°13.962 2°53.009 6.2 269 4.8 102910 68
2002-03-28 08:01:25 51°13.952 2°52.981 6.1 264 4.8 102910 68
2002-03-28 08:01:30 51°13.942 2°52.952 5.9 262 4.8 102910 68
2002-03-28 08:01:35 51°13.932 2°52.923 5.9 263 4.9 102910 69
2002-03-28 08:01:40 51°13.922 2°52.895 5.7 259 4.9 102910 69
2002-03-28 08:01:45 51°13.913 2°52.865 5.6 262 4.9 102910 69
2002-03-28 08:01:49 51°13.905 2°52.843 6.5 262 4.9 102910 69
2002-03-28 08:01:55 51°13.893 2°52.808 6.1 263 4.9 102910 68
2002-03-28 08:02:00 51°13.883 2°52.779 5.8 271 4.9 102910 68
2002-03-28 08:02:04 51°13.875 2°52.756 5.4 262 4.9 102900 68
2002-03-28 08:02:10 51°13.863 2°52.722 5.7 268 4.9 102900 68
2002-03-28 08:02:15 51°13.852 2°52.694 5.6 266 5 102910 68
2002-03-28 08:02:20 51°13.842 2°52.665 6 260 5 102910 68
2002-03-28 08:02:25 51°13.833 2°52.636 5.9 260 5 102910 68
2002-03-28 08:02:29 51°13.825 2°52.613 5.5 258 5 102910 68
2002-03-28 08:02:35 51°13.813 2°52.578 6.1 263 5 102910 67
2002-03-28 08:02:40 51°13.804 2°52.548 5.7 263 5 102910 67
2002-03-28 08:02:45 51°13.794 2°52.52 5.3 260 5 102910 67
2002-03-28 08:02:50 51°13.784 2°52.491 5.8 261 5 102910 67
2002-03-28 08:02:55 51°13.774 2°52.462 6.4 267 5 102910 67
2002-03-28 08:03:00 51°13.764 2°52.433 6.1 265 5 102910 67
2002-03-28 08:03:05 51°13.754 2°52.404 6.3 272 5 102910 66
2002-03-28 08:03:09 51°13.746 2°52.381 5.5 265 5 102910 66
2002-03-28 08:03:15 51°13.734 2°52.346 6.4 262 5.1 102900 66
2002-03-28 08:03:20 51°13.724 2°52.317 6.7 268 5.1 102900 66
2002-03-28 08:03:25 51°13.714 2°52.289 5.9 257 5.1 102900 66
2002-03-28 08:03:30 51°13.704 2°52.26 5.9 262 5.1 102900 66
2002-03-28 08:03:35 51°13.694 2°52.231 5.8 267 5.1 102900 65
2002-03-28 08:03:40 51°13.684 2°52.202 5.9 265 5.1 102900 65
2002-03-28 08:03:45 51°13.674 2°52.173 5.9 260 5.1 102900 65
2002-03-28 08:03:49 51°13.666 2°52.149 6.4 257 5.1 102900 65
2002-03-28 08:03:55 51°13.654 2°52.115 6.2 270 5.2 102900 66
2002-03-28 08:04:00 51°13.645 2°52.085 6.6 266 5.2 102900 66
2002-03-28 08:04:05 51°13.635 2°52.056 6.6 261 5.2 102900 65
2002-03-28 08:04:10 51°13.625 2°52.027 6.1 265 5.2 102900 65
2002-03-28 08:04:15 51°13.615 2°51.998 6.2 266 5.3 102900 65
2002-03-28 08:04:20 51°13.605 2°51.969 6.6 261 5.3 102900 65
2002-03-28 08:04:25 51°13.595 2°51.94 6.9 265 5.3 102900 65
2002-03-28 08:04:29 51°13.587 2°51.917 6.3 261 5.3 102900 65
2002-03-28 08:04:35 51°13.575 2°51.882 6.6 259 5.3 102900 64
2002-03-28 08:04:40 51°13.566 2°51.853 6.5 262 5.3 102900 64
2002-03-28 08:04:45 51°13.556 2°51.823 6.4 266 5.3 102900 65
2002-03-28 08:04:50 51°13.546 2°51.795 6.4 263 5.3 102900 65
2002-03-28 08:04:55 51°13.536 2°51.765 6.9 260 5.4 102900 65
2002-03-28 08:05:00 51°13.526 2°51.737 6.3 259 5.4 102900 65
2002-03-28 08:05:05 51°13.516 2°51.707 5.9 261 5.4 102900 64
2002-03-28 08:05:10 51°13.506 2°51.678 6.3 259 5.4 102900 64
2002-03-28 08:05:15 51°13.496 2°51.649 6.1 258 5.4 102900 65
2002-03-28 08:05:20 51°13.486 2°51.62 5.9 266 5.4 102900 65
2002-03-28 08:05:26 51°13.474 2°51.585 6.3 258 5.4 102900 64
2002-03-28 08:05:30 51°13.466 2°51.562 5.9 258 5.4 102900 64
2002-03-28 08:05:35 51°13.456 2°51.532 6.6 264 5.4 102890 64
2002-03-28 08:05:40 51°13.446 2°51.503 6.6 257 5.4 102890 64
2002-03-28 08:05:45 51°13.436 2°51.474 7.1 264 5.5 102900 64
2002-03-28 08:05:51 51°13.425 2°51.439 6.5 262 5.5 102900 64
2002-03-28 08:05:55 51°13.416 2°51.416 7.3 263 5.5 102900 64
2002-03-28 08:06:00 51°13.407 2°51.387 6.5 265 5.5 102900 64
2002-03-28 08:06:05 51°13.397 2°51.358 6.7 262 5.5 102900 64
2002-03-28 08:06:10 51°13.387 2°51.328 6.7 259 5.5 102900 64
2002-03-28 08:06:15 51°13.377 2°51.299 6.4 259 5.5 102890 64
2002-03-28 08:06:20 51°13.367 2°51.27 6.3 266 5.5 102890 64
2002-03-28 08:06:25 51°13.357 2°51.242 5.7 261 5.5 102890 63
2002-03-28 08:06:30 51°13.347 2°51.212 5.7 263 5.5 102890 63
2002-03-28 08:06:35 51°13.337 2°51.183 5.6 260 5.5 102890 63
2002-03-28 08:06:40 51°13.327 2°51.154 5.9 261 5.5 102890 63
2002-03-28 08:06:45 51°13.317 2°51.125 6.2 258 5.6 102900 63
2002-03-28 08:06:51 51°13.305 2°51.089 5.9 256 5.6 102900 63
2002-03-28 08:06:55 51°13.298 2°51.066 5.9 259 5.6 102900 63
2002-03-28 08:07:01 51°13.286 2°51.031 6.1 253 5.6 102900 63
2002-03-28 08:07:05 51°13.278 2°51.007 6.1 258 5.6 102900 63
2002-03-28 08:07:10 51°13.267 2°50.978 5.7 257 5.6 102900 63
2002-03-28 08:07:15 51°13.257 2°50.949 6 256 5.6 102900 64
2002-03-28 08:07:20 51°13.247 2°50.92 6.6 255 5.6 102900 64
2002-03-28 08:07:25 51°13.236 2°50.891 6.1 253 5.7 102900 64
2002-03-28 08:07:30 51°13.227 2°50.862 7.2 260 5.7 102900 64
2002-03-28 08:07:35 51°13.217 2°50.833 6.7 257 5.7 102900 63
2002-03-28 08:07:40 51°13.207 2°50.804 6.6 255 5.7 102900 63
2002-03-28 08:07:45 51°13.197 2°50.775 6.4 257 5.7 102900 64
2002-03-28 08:07:49 51°13.189 2°50.751 6.2 259 5.7 102900 64
2002-03-28 08:07:55 51°13.177 2°50.717 6.3 263 5.7 102900 65
2002-03-28 08:08:00 51°13.167 2°50.687 6.6 263 5.7 102900 65
2002-03-28 08:08:05 51°13.158 2°50.658 6.9 263 5.8 102900 64
2002-03-28 08:08:10 51°13.148 2°50.629 6.2 265 5.8 102900 64
2002-03-28 08:08:15 51°13.138 2°50.6 6.8 267 5.8 102900 63
2002-03-28 08:08:20 51°13.129 2°50.571 6.6 270 5.8 102900 63
2002-03-28 08:08:25 51°13.119 2°50.542 6.3 267 5.8 102900 63
2002-03-28 08:08:29 51°13.111 2°50.518 6.3 268 5.8 102900 63
2002-03-28 08:08:35 51°13.099 2°50.483 6.7 265 5.8 102900 62
2002-03-28 08:08:40 51°13.089 2°50.454 6.5 258 5.8 102900 62
2002-03-28 08:08:45 51°13.079 2°50.424 6.2 259 5.8 102900 61
2002-03-28 08:08:51 51°13.068 2°50.389 5.7 264 5.8 102900 61
2002-03-28 08:08:55 51°13.059 2°50.367 5.7 257 5.8 102900 61
2002-03-28 08:09:00 51°13.05 2°50.337 6.2 262 5.8 102900 61
2002-03-28 08:09:05 51°13.039 2°50.308 6.5 262 5.9 102900 62
2002-03-28 08:09:10 51°13.029 2°50.279 6.7 258 5.9 102900 62
2002-03-28 08:09:15 51°13.02 2°50.249 6.5 262 5.9 102900 62
2002-03-28 08:09:20 51°13.009 2°50.22 6.4 265 5.9 102900 62
2002-03-28 08:09:25 51°12.999 2°50.191 6.1 266 5.9 102900 63
2002-03-28 08:09:30 51°12.989 2°50.161 6.5 270 5.9 102900 63
2002-03-28 08:09:35 51°12.979 2°50.132 6.3 269 5.9 102900 62
2002-03-28 08:09:40 51°12.969 2°50.103 6.8 263 5.9 102900 62
2002-03-28 08:09:45 51°12.96 2°50.074 6.7 267 5.9 102900 62
2002-03-28 08:09:51 51°12.948 2°50.039 7.2 267 5.9 102900 62
2002-03-28 08:09:55 51°12.939 2°50.016 5.9 269 5.9 102900 62
2002-03-28 08:10:00 51°12.929 2°49.987 6.3 267 5.9 102900 62
2002-03-28 08:10:05 51°12.918 2°49.958 6.7 269 5.9 102890 62
2002-03-28 08:10:10 51°12.908 2°49.929 7.1 272 5.9 102890 62
2002-03-28 08:10:15 51°12.898 2°49.9 6.8 273 5.9 102900 62
2002-03-28 08:10:20 51°12.888 2°49.871 6.9 268 5.9 102900 62
2002-03-28 08:10:25 51°12.878 2°49.842 6.4 272 5.9 102900 62
2002-03-28 08:10:30 51°12.868 2°49.813 6.5 272 5.9 102900 62
2002-03-28 08:10:35 51°12.857 2°49.784 6 275 5.9 102900 61
2002-03-28 08:10:39 51°12.849 2°49.761 6 272 5.9 102900 61
2002-03-28 08:10:45 51°12.837 2°49.726 6.2 272 5.9 102900 62
2002-03-28 08:10:50 51°12.826 2°49.697 5.8 270 5.9 102900 62
2002-03-28 08:10:55 51°12.816 2°49.668 5.9 267 5.9 102900 62
2002-03-28 08:11:00 51°12.806 2°49.639 6.4 272 5.9 102900 62
2002-03-28 08:11:05 51°12.796 2°49.61 6.3 266 5.9 102900 62
2002-03-28 08:11:11 51°12.784 2°49.575 7 267 5.9 102900 62
2002-03-28 08:11:15 51°12.776 2°49.552 6.6 269 5.9 102900 62
2002-03-28 08:11:20 51°12.766 2°49.523 5.6 268 5.9 102900 62
2002-03-28 08:11:25 51°12.756 2°49.494 5.9 268 5.9 102900 63
2002-03-28 08:11:31 51°12.744 2°49.458 5.8 267 5.9 102900 63
2002-03-28 08:11:35 51°12.736 2°49.435 6.2 273 5.9 102900 63
2002-03-28 08:11:39 51°12.727 2°49.412 5.5 271 5.9 102900 63
2002-03-28 08:11:45 51°12.715 2°49.377 5.8 263 5.9 102900 63
2002-03-28 08:11:51 51°12.703 2°49.341 6.5 266 5.9 102900 63
2002-03-28 08:11:55 51°12.695 2°49.318 5.8 270 5.9 102900 64
2002-03-28 08:12:00 51°12.685 2°49.289 6.3 269 5.9 102900 64
2002-03-28 08:12:05 51°12.675 2°49.26 6.2 269 5.9 102900 64
2002-03-28 08:12:10 51°12.665 2°49.23 6.6 272 5.9 102900 64
2002-03-28 08:12:15 51°12.655 2°49.201 6.3 278 5.9 102900 63
2002-03-28 08:12:20 51°12.645 2°49.172 6.3 271 5.9 102900 63
2002-03-28 08:12:25 51°12.634 2°49.143 6.2 276 5.9 102900 64
2002-03-28 08:12:29 51°12.626 2°49.12 5.8 278 5.9 102900 64
2002-03-28 08:12:35 51°12.614 2°49.085 5.5 274 5.9 102900 63
2002-03-28 08:12:40 51°12.603 2°49.056 5.8 273 5.9 102900 63
2002-03-28 08:12:45 51°12.593 2°49.027 5.9 271 5.9 102900 64
2002-03-28 08:12:50 51°12.583 2°48.998 6.1 273 5.9 102900 64
2002-03-28 08:12:55 51°12.573 2°48.969 6 270 5.8 102900 64
2002-03-28 08:13:00 51°12.562 2°48.94 5.6 270 5.8 102900 64
2002-03-28 08:13:05 51°12.552 2°48.911 6.4 270 5.8 102900 64
2002-03-28 08:13:10 51°12.542 2°48.882 6.1 268 5.8 102900 64
2002-03-28 08:13:15 51°12.532 2°48.852 5.9 267 5.8 102900 64
2002-03-28 08:13:20 51°12.522 2°48.823 6 271 5.8 102900 64
2002-03-28 08:13:25 51°12.512 2°48.794 5.6 272 5.8 102900 65
2002-03-28 08:13:30 51°12.502 2°48.765 6.1 273 5.8 102900 65
2002-03-28 08:13:35 51°12.492 2°48.736 5.8 269 5.9 102900 66
2002-03-28 08:13:40 51°12.482 2°48.707 7 276 5.9 102900 66
2002-03-28 08:13:45 51°12.471 2°48.678 6.3 273 5.8 102900 65
2002-03-28 08:13:49 51°12.464 2°48.655 6.8 273 5.8 102900 65
2002-03-28 08:13:55 51°12.451 2°48.62 6.2 278 5.8 102900 65
2002-03-28 08:14:00 51°12.441 2°48.591 5.7 273 5.8 102900 65
2002-03-28 08:14:05 51°12.431 2°48.562 5.9 268 5.8 102900 66
2002-03-28 08:14:10 51°12.421 2°48.534 6.4 267 5.8 102900 66
2002-03-28 08:14:15 51°12.41 2°48.505 6.4 271 5.8 102900 66
2002-03-28 08:14:20 51°12.401 2°48.476 6.6 278 5.8 102900 66
2002-03-28 08:14:25 51°12.39 2°48.447 6.3 275 5.8 102900 65
2002-03-28 08:14:29 51°12.383 2°48.423 6.5 275 5.8 102900 65
2002-03-28 08:14:35 51°12.37 2°48.389 5.8 272 5.8 102900 66
2002-03-28 08:14:40 51°12.36 2°48.36 5.6 272 5.8 102900 66
2002-03-28 08:14:45 51°12.349 2°48.331 6.3 272 5.8 102900 66
2002-03-28 08:14:50 51°12.339 2°48.303 5.8 274 5.8 102900 66
2002-03-28 08:14:55 51°12.328 2°48.275 6.3 261 5.8 102910 65
2002-03-28 08:15:00 51°12.317 2°48.246 6.8 271 5.8 102910 65
2002-03-28 08:15:05 51°12.306 2°48.218 6.9 268 5.8 102900 65
2002-03-28 08:15:11 51°12.293 2°48.184 5.9 271 5.8 102900 65
2002-03-28 08:15:15 51°12.285 2°48.161 5.9 268 5.8 102900 65
2002-03-28 08:15:20 51°12.274 2°48.133 6.5 267 5.8 102900 65
2002-03-28 08:15:25 51°12.263 2°48.105 6.3 268 5.8 102900 65
2002-03-28 08:15:30 51°12.252 2°48.076 6.2 267 5.8 102900 65
2002-03-28 08:15:35 51°12.242 2°48.048 6.7 268 5.8 102900 66
2002-03-28 08:15:40 51°12.231 2°48.019 6.9 271 5.8 102900 66
2002-03-28 08:15:45 51°12.22 2°47.991 6.6 271 5.8 102900 66
2002-03-28 08:15:50 51°12.21 2°47.962 7 272 5.8 102900 66
2002-03-28 08:15:55 51°12.199 2°47.934 7.1 271 5.8 102900 67
2002-03-28 08:16:00 51°12.188 2°47.906 7 267 5.8 102900 67
2002-03-28 08:16:05 51°12.178 2°47.877 6.5 272 5.8 102890 67
2002-03-28 08:16:10 51°12.167 2°47.849 6.6 275 5.8 102890 67
2002-03-28 08:16:15 51°12.156 2°47.821 6.5 272 5.8 102890 67
2002-03-28 08:16:20 51°12.146 2°47.792 6.4 271 5.8 102890 67
2002-03-28 08:16:26 51°12.133 2°47.758 6.5 267 5.8 102900 66
2002-03-28 08:16:30 51°12.125 2°47.735 6.5 276 5.8 102900 66
2002-03-28 08:16:35 51°12.114 2°47.707 6.2 270 5.8 102900 66
2002-03-28 08:16:40 51°12.104 2°47.678 6.1 269 5.8 102900 66
2002-03-28 08:16:45 51°12.093 2°47.65 6.2 268 5.8 102900 66
2002-03-28 08:16:51 51°12.081 2°47.616 6.2 269 5.8 102900 66
2002-03-28 08:16:55 51°12.072 2°47.593 5.9 267 5.8 102900 66
2002-03-28 08:17:00 51°12.061 2°47.565 6.8 270 5.8 102900 66
2002-03-28 08:17:05 51°12.051 2°47.537 6.2 265 5.8 102900 66
2002-03-28 08:17:11 51°12.038 2°47.502 6.1 264 5.8 102900 66
2002-03-28 08:17:15 51°12.03 2°47.48 5.8 265 5.8 102900 66
2002-03-28 08:17:20 51°12.02 2°47.452 5.8 264 5.8 102900 66
2002-03-28 08:17:25 51°12.009 2°47.424 5.9 263 5.8 102900 66
2002-03-28 08:17:31 51°11.996 2°47.389 5.5 267 5.8 102900 66
2002-03-28 08:17:35 51°11.987 2°47.367 6.5 262 5.8 102900 67
2002-03-28 08:17:40 51°11.977 2°47.338 6.2 267 5.8 102900 67
2002-03-28 08:17:45 51°11.966 2°47.31 5.8 268 5.8 102900 66
2002-03-28 08:17:51 51°11.953 2°47.276 6.2 267 5.8 102900 66
2002-03-28 08:17:55 51°11.945 2°47.253 6.1 268 5.8 102900 67
2002-03-28 08:17:59 51°11.937 2°47.231 6.1 263 5.8 102900 67
2002-03-28 08:18:05 51°11.924 2°47.197 6.6 271 5.8 102890 67
2002-03-28 08:18:11 51°11.911 2°47.163 6.6 266 5.8 102890 67
2002-03-28 08:18:15 51°11.903 2°47.14 6.8 266 5.8 102900 66
2002-03-28 08:18:20 51°11.892 2°47.112 6.9 269 5.8 102900 66
2002-03-28 08:18:25 51°11.881 2°47.084 6.9 275 5.8 102890 66
2002-03-28 08:18:29 51°11.873 2°47.061 6.2 268 5.8 102890 66
2002-03-28 08:18:35 51°11.861 2°47.027 6.6 274 5.8 102900 66
2002-03-28 08:18:39 51°11.852 2°47.005 6.1 275 5.8 102900 66
2002-03-28 08:18:45 51°11.839 2°46.97 6 270 5.8 102900 66
2002-03-28 08:18:50 51°11.828 2°46.942 5.8 267 5.8 102900 66
2002-03-28 08:18:55 51°11.818 2°46.914 6.8 271 5.8 102900 66
2002-03-28 08:19:00 51°11.808 2°46.885 6.5 276 5.8 102900 66
2002-03-28 08:19:05 51°11.797 2°46.857 5.8 273 5.8 102900 66
2002-03-28 08:19:10 51°11.786 2°46.829 5.9 269 5.8 102900 66
2002-03-28 08:19:15 51°11.776 2°46.801 5.7 268 5.8 102900 66
2002-03-28 08:19:20 51°11.765 2°46.772 5.9 267 5.8 102900 66
2002-03-28 08:19:25 51°11.755 2°46.744 5.5 265 5.8 102900 66
2002-03-28 08:19:30 51°11.744 2°46.716 5.9 274 5.8 102900 66
2002-03-28 08:19:35 51°11.733 2°46.688 6.1 262 5.8 102900 65
2002-03-28 08:19:40 51°11.723 2°46.659 6.3 270 5.8 102900 65
2002-03-28 08:19:44 51°11.715 2°46.637 5.6 268 5.8 102900 66
2002-03-28 08:19:49 51°11.704 2°46.608 5.6 262 5.8 102900 66
2002-03-28 08:19:56 51°11.69 2°46.569 6.5 268 5.8 102900 66
2002-03-28 08:20:00 51°11.681 2°46.546 5.9 263 5.8 102900 66
2002-03-28 08:20:05 51°11.671 2°46.518 7 266 5.9 102900 66
2002-03-28 08:20:10 51°11.66 2°46.49 6.1 265 5.9 102900 66
2002-03-28 08:20:15 51°11.65 2°46.461 6.1 264 5.9 102900 65
2002-03-28 08:20:20 51°11.639 2°46.433 7 267 5.9 102900 65
2002-03-28 08:20:24 51°11.631 2°46.41 6.9 268 5.9 102900 66
2002-03-28 08:20:30 51°11.618 2°46.377 6.4 268 5.9 102900 66
2002-03-28 08:20:35 51°11.608 2°46.348 6.3 266 5.9 102900 65
2002-03-28 08:20:40 51°11.597 2°46.32 6.2 264 5.9 102900 65
2002-03-28 08:20:45 51°11.587 2°46.292 6.5 267 5.9 102900 66
2002-03-28 08:20:50 51°11.576 2°46.263 6.3 272 5.9 102900 66
2002-03-28 08:20:55 51°11.565 2°46.235 6 271 5.9 102900 65
2002-03-28 08:21:00 51°11.555 2°46.208 6.1 272 5.9 102900 65
2002-03-28 08:21:05 51°11.544 2°46.18 6.6 271 5.9 102900 65
2002-03-28 08:21:10 51°11.534 2°46.152 6.3 269 5.9 102900 65
2002-03-28 08:21:15 51°11.523 2°46.124 6.1 267 5.9 102900 65
2002-03-28 08:21:20 51°11.513 2°46.096 6.1 264 5.9 102900 65
2002-03-28 08:21:25 51°11.502 2°46.068 5.5 267 5.9 102900 65
2002-03-28 08:21:31 51°11.49 2°46.035 5.2 266 5.9 102900 65
2002-03-28 08:21:35 51°11.481 2°46.013 5.5 265 5.9 102900 65
2002-03-28 08:21:41 51°11.469 2°45.98 5.5 260 5.9 102900 65
2002-03-28 08:21:45 51°11.46 2°45.957 5.8 266 6 102890 66
2002-03-28 08:21:51 51°11.447 2°45.925 5.9 264 6 102890 66
2002-03-28 08:21:55 51°11.439 2°45.903 5.9 265 6 102900 66
2002-03-28 08:22:00 51°11.429 2°45.875 6.3 264 6 102900 66
2002-03-28 08:22:05 51°11.418 2°45.848 6.1 272 6 102900 65
2002-03-28 08:22:10 51°11.408 2°45.82 6 263 6 102900 65
2002-03-28 08:22:15 51°11.397 2°45.793 5.7 266 6 102900 66
2002-03-28 08:22:20 51°11.387 2°45.765 6.4 262 6 102900 66